User: anonymous   Login
Location: *
(40.7765°S, 106.5327°E)
Time: 08:09:43
(UTC+00:00)
Language:

Meteor PRIRODA - Orbit

View from above orbital plane
View from above orbital plane
View from above satellite
View from above satellite

Ground track
Ground track

The orbit data is extracted from the following two-line orbital elements,

1 12585U 81065A   22230.75958508  .00003834  00000-0  15819-3 0  9992
2 12585  97.5852 236.3924 0011440 279.5433  80.4511 15.24623441243663
Epoch (UTC): 18 August 2022 18:13:48
Eccentricity: 0.0011440
inclination: 97.5852°
perigee height: 484 km
apogee height: 500 km
right ascension of ascending node: 236.3924°
argument of perigee: 279.5433°
revolutions per day: 15.24623441
mean anomaly at epoch: 80.4511°
orbit number at epoch: 24366

The dashed part of the orbit path shows where the satellite is in the earth's shadow,  

DLR